星链-31240 (STARLINK-31240 )

导读 | 星芒AI

STARLINK-31240 是 SpaceX Starlink 项目中的一颗低轨通信卫星,属于第三代 Starlink 卫星(也称为 v1.5 或 Block V)。该卫星于2023年发射,旨在为全球提供高速、低延迟的互联网服务。它运行在约550公里高的近地轨道,配备先进推进系统和激光通信设备,以提升网络效率和卫星间通信能力。STARLINK-31240 是 SpaceX 扩大全球宽带覆盖计划的一部分,支持偏远地区和高需求区域的互联网接入。

基本信息
目录编号:
59041
目录名称:
STARLINK-31240
国际标识:
2024-038U
轨道中心:
EARTH
卫星名称:
星链-31240
卫星全名:
星链-31240 (STARLINK-31240 )
卫星状态:
在轨 (已飞行663 天)
发射日期:
2024-02-25 UTC
国别 :
美国 (US)
星等 :
--
轨道信息
数据来源 国际轨道数据
星历时间: 2025-12-18T17:42:26+0800
1天前
查看轨道信息
半长轴: 6861.125km
偏心率: 0.0000938
轨道倾角: 43.000°
近地点辐角 286.259°
升交点赤经 122.889°
平近点角 73.816°
近地点: 482.346km
远地点: 483.634km
周期: 94.265分钟
每日圈数: 15.276007
详细信息
固有亮度:
5
最大亮度:
0.3
卫星平台:
Starlink v2.0 mini
覆盖范围:
全球
运营商:
太空探索技术公司
运营商所在国:
美国
制造商(研发单位):
太空探索技术公司
制造商所在国:
美国
使用方式:
暂无
卫星简介
星链(Starlink)计划是由太空探索技术公司(SpaceX)提出的一个巨型低轨卫星互联网星座项目,计划在2019年至2024年间在太空搭建由约1.2万颗卫星组成的“星链”网络,其中1584颗将部署在地球上空550千米处的近地轨道,并从2020年开始工作。该卫星仍在工作。
2D轨道图
3D轨道图
轨道高度分析图
轨道倾角分析图
轨道综合分析图
查看轨道综合分析图